Time,TemperatureF,DewpointF,PressureIn,WindDirection,WindDirectionDegrees,WindSpeedMPH,WindSpeedGustMPH,Humidity,HourlyPrecipIn,Conditions,Clouds,dailyrainin,SolarRadiationWatts/m^2,SoftwareType,DateUTC
2013-03-04 00:00:00,45.1,25.0,29.51,SE,132,0.3,2.3,45,0.00,SCT,SCT,0.00,0.0,WeatherDisplay:10.37,2013-03-04 07:00:00,
2013-03-04 00:05:00,45.0,24.9,29.51,SE,132,0.0,0.0,45,0.00,FEW,FEW,0.00,0.0,WeatherDisplay:10.37,2013-03-04 07:05:00,
2013-03-04 00:10:00,44.7,25.2,29.51,SE,132,0.0,0.0,46,0.00,FEW,FEW,0.00,0.0,WeatherDisplay:10.37,2013-03-04 07:10:00,
2013-03-04 00:15:00,44.4,25.4,29.51,SE,132,0.0,0.0,47,0.00,FEW,FEW,0.00,0.0,WeatherDisplay:10.37,2013-03-04 07:15:00,
2013-03-04 00:20:00,44.2,24.7,29.50,SE,132,0.0,0.0,46,0.00,FEW,FEW,0.00,0.0,WeatherDisplay:10.37,2013-03-04 07:20:00,
2013-03-04 00:25:00,44.0,24.5,29.50,SE,132,0.0,0.0,46,0.00,FEW,FEW,0.00,0.0,WeatherDisplay:10.37,2013-03-04 07:25:00,
2013-03-04 00:30:00,43.8,24.9,29.50,SE,132,0.1,3.4,47,0.00,FEW,FEW,0.00,0.0,WeatherDisplay:10.37,2013-03-04 07:30:00,
2013-03-04 00:35:00,43.7,25.3,29.50,SE,132,1.9,4.0,48,0.00,FEW,FEW,0.00,0.0,WeatherDisplay:10.37,2013-03-04 07:35:00,
2013-03-04 00:40:00,43.2,25.3,29.51,SE,132,0.0,2.3,49,0.00,FEW,FEW,0.00,0.0,WeatherDisplay:10.37,2013-03-04 07:40:00,
2013-03-04 00:45:00,42.8,24.9,29.51,SE,132,1.2,2.3,49,0.00,FEW,FEW,0.00,0.0,WeatherDisplay:10.37,2013-03-04 07:45:00,
2013-03-04 00:50:00,42.7,24.8,29.51,SE,132,0.0,2.3,49,0.00,FEW,FEW,0.00,0.0,WeatherDisplay:10.37,2013-03-04 07:50:00,
2013-03-04 00:55:00,42.5,25.1,29.51,SE,132,1.9,2.3,50,0.00,FEW,FEW,0.00,0.0,WeatherDisplay:10.37,2013-03-04 07:55:00,
2013-03-04 01:00:00,42.3,25.0,29.51,SE,132,0.0,1.1,50,0.00,FEW,FEW,0.00,0.0,WeatherDisplay:10.37,2013-03-04 08:00:00,
2013-03-04 01:05:00,42.1,24.8,29.51,SE,132,0.0,0.0,50,0.00,SCT,SCT,0.00,0.0,WeatherDisplay:10.37,2013-03-04 08:05:00,
2013-03-04 01:10:00,41.9,25.1,29.51,SE,132,0.0,0.0,51,0.00,SCT,SCT,0.00,0.0,WeatherDisplay:10.37,2013-03-04 08:10:00,
2013-03-04 01:15:00,41.7,24.4,29.52,SE,132,0.0,0.0,50,0.00,SCT,SCT,0.00,0.0,WeatherDisplay:10.37,2013-03-04 08:15:00,
2013-03-04 01:20:00,41.5,24.7,29.52,SE,132,0.0,0.0,51,0.00,SCT,SCT,0.00,0.0,WeatherDisplay:10.37,2013-03-04 08:20:00,
2013-03-04 01:25:00,41.4,24.6,29.53,SW,228,0.9,4.6,51,0.00,SCT,SCT,0.00,0.0,WeatherDisplay:10.37,2013-03-04 08:25:00,
2013-03-04 01:30:00,41.3,24.5,29.53,SW,227,0.1,0.0,51,0.00,SCT,SCT,0.00,0.0,WeatherDisplay:10.37,2013-03-04 08:30:00,
2013-03-04 01:35:00,41.3,24.5,29.53,SW,228,0.0,2.3,51,0.00,SCT,SCT,0.00,0.0,WeatherDisplay:10.37,2013-03-04 08:35:00,
2013-03-04 01:40:00,41.4,24.6,29.53,SW,228,0.6,1.1,51,0.00,SCT,SCT,0.00,0.0,WeatherDisplay:10.37,2013-03-04 08:40:00,
2013-03-04 01:45:00,41.5,25.2,29.52,SW,219,0.3,2.3,52,0.00,SCT,SCT,0.00,0.0,WeatherDisplay:10.37,2013-03-04 08:45:00,
2013-03-04 01:50:00,41.5,25.2,29.52,SW,219,0.9,2.3,52,0.00,SCT,SCT,0.00,0.0,WeatherDisplay:10.37,2013-03-04 08:50:00,
2013-03-04 01:55:00,41.3,25.0,29.53,SW,219,0.4,2.3,52,0.00,SCT,SCT,0.00,0.0,WeatherDisplay:10.37,2013-03-04 08:55:00,
2013-03-04 02:00:00,41.0,25.2,29.53,SW,219,0.0,0.0,53,0.00,SCT,SCT,0.00,0.0,WeatherDisplay:10.37,2013-03-04 09:00:00,
2013-03-04 02:05:00,40.6,24.8,29.52,SW,219,0.0,0.0,53,0.00,BKN,BKN,0.00,0.0,WeatherDisplay:10.37,2013-03-04 09:05:00,
2013-03-04 02:10:00,40.1,24.8,29.53,SW,219,0.0,0.0,54,0.00,BKN,BKN,0.00,0.0,WeatherDisplay:10.37,2013-03-04 09:10:00,
2013-03-04 02:15:00,39.7,24.4,29.53,SW,219,0.0,1.1,54,0.00,BKN,BKN,0.00,0.0,WeatherDisplay:10.37,2013-03-04 09:15:00,
2013-03-04 02:20:00,39.3,24.5,29.53,SW,219,0.0,1.1,55,0.00,BKN,BKN,0.00,0.0,WeatherDisplay:10.37,2013-03-04 09:20:00,
2013-03-04 02:25:00,38.9,24.5,29.53,SSE,155,0.6,3.4,56,0.00,BKN,BKN,0.00,0.0,WeatherDisplay:10.37,2013-03-04 09:25:00,
2013-03-04 02:30:00,38.6,24.7,29.53,SSE,155,0.0,2.3,57,0.00,BKN,BKN,0.00,0.0,WeatherDisplay:10.37,2013-03-04 09:30:00,
2013-03-04 02:35:00,38.3,24.4,29.54,SSE,155,0.3,1.0,57,0.00,BKN,BKN,0.00,0.0,WeatherDisplay:10.37,2013-03-04 09:35:00,
2013-03-04 02:40:00,38.1,24.2,29.54,SSE,155,2.1,3.4,57,0.00,BKN,BKN,0.00,0.0,WeatherDisplay:10.37,2013-03-04 09:40:00,
2013-03-04 02:45:00,38.0,24.5,29.54,SSE,155,1.0,3.4,58,0.00,BKN,BKN,0.00,0.0,WeatherDisplay:10.37,2013-03-04 09:45:00,
2013-03-04 02:50:00,37.9,24.4,29.53,SSE,153,3.8,4.6,58,0.00,BKN,BKN,0.00,0.0,WeatherDisplay:10.37,2013-03-04 09:50:00,
2013-03-04 02:55:00,37.8,24.7,29.53,SSE,153,2.3,3.4,59,0.00,BKN,BKN,0.00,0.0,WeatherDisplay:10.37,2013-03-04 09:55:00,
2013-03-04 03:00:00,37.7,24.6,29.53,SSE,153,2.3,4.6,59,0.00,BKN,BKN,0.00,0.0,WeatherDisplay:10.37,2013-03-04 10:00:00,
2013-03-04 03:05:00,37.6,24.6,29.54,SSE,153,0.3,2.3,59,0.00,BKN,BKN,0.00,0.0,WeatherDisplay:10.37,2013-03-04 10:05:00,
2013-03-04 03:10:00,37.5,24.5,29.54,SE,146,2.9,3.4,59,0.00,BKN,BKN,0.00,0.0,WeatherDisplay:10.37,2013-03-04 10:10:00,
2013-03-04 03:15:00,37.3,24.7,29.55,SE,146,1.8,3.4,60,0.00,BKN,BKN,0.00,0.0,WeatherDisplay:10.37,2013-03-04 10:15:00,
2013-03-04 03:20:00,37.1,24.5,29.54,SE,146,0.5,2.3,60,0.00,BKN,BKN,0.00,0.0,WeatherDisplay:10.37,2013-03-04 10:20:00,
2013-03-04 03:25:00,37.0,24.4,29.54,SE,146,3.2,3.4,60,0.00,BKN,BKN,0.00,0.0,WeatherDisplay:10.37,2013-03-04 10:25:00,
2013-03-04 03:30:00,37.0,24.4,29.54,SSE,149,3.3,4.6,60,0.00,BKN,BKN,0.00,0.0,WeatherDisplay:10.37,2013-03-04 10:30:00,
2013-03-04 03:35:00,37.1,24.5,29.54,SSE,149,2.2,3.4,60,0.00,BKN,BKN,0.00,0.0,WeatherDisplay:10.37,2013-03-04 10:35:00,
2013-03-04 03:40:00,37.4,24.8,29.55,SSE,149,0.3,1.0,60,0.00,BKN,BKN,0.00,0.0,WeatherDisplay:10.37,2013-03-04 10:40:00,
2013-03-04 03:45:00,37.5,24.9,29.53,SSE,149,0.4,1.1,60,0.00,BKN,BKN,0.00,0.0,WeatherDisplay:10.37,2013-03-04 10:45:00,
2013-03-04 03:50:00,37.7,24.6,29.54,SSE,149,0.0,0.0,59,0.00,BKN,BKN,0.00,0.0,WeatherDisplay:10.37,2013-03-04 10:50:00,
2013-03-04 03:55:00,37.7,24.6,29.54,SSE,149,0.6,3.4,59,0.00,BKN,BKN,0.00,0.0,WeatherDisplay:10.37,2013-03-04 10:55:00,
2013-03-04 04:00:00,37.8,24.7,29.54,SSE,149,1.8,3.4,59,0.00,BKN,BKN,0.00,0.0,WeatherDisplay:10.37,2013-03-04 11:00:00,
2013-03-04 04:05:00,38.0,24.9,29.57,ESE,111,1.4,4.0,59,0.00,BKN,BKN,0.00,0.0,WeatherDisplay:10.37,2013-03-04 11:05:00,
2013-03-04 04:10:00,38.1,24.6,29.57,NE,38,4.2,5.8,58,0.00,BKN,BKN,0.00,0.0,WeatherDisplay:10.37,2013-03-04 11:10:00,
2013-03-04 04:15:00,38.2,24.7,29.58,NE,38,3.1,4.6,58,0.00,BKN,BKN,0.00,0.0,WeatherDisplay:10.37,2013-03-04 11:15:00,
2013-03-04 04:20:00,38.4,24.9,29.58,NE,37,0.5,3.4,58,0.00,BKN,BKN,0.00,0.0,WeatherDisplay:10.37,2013-03-04 11:20:00,
2013-03-04 04:25:00,38.6,25.1,29.57,NE,37,0.4,1.0,58,0.00,BKN,BKN,0.00,0.0,WeatherDisplay:10.37,2013-03-04 11:25:00,
2013-03-04 04:30:00,38.9,25.4,29.58,NE,48,3.9,10.3,58,0.00,BKN,BKN,0.00,0.0,WeatherDisplay:10.37,2013-03-04 11:30:00,
2013-03-04 04:35:00,38.6,25.9,29.59,ENE,77,7.7,13.8,60,0.00,BKN,BKN,0.00,0.0,WeatherDisplay:10.37,2013-03-04 11:35:00,
2013-03-04 04:40:00,37.1,25.7,29.61,NNE,33,9.6,18.0,63,0.00,BKN,BKN,0.00,0.0,WeatherDisplay:10.37,2013-03-04 11:40:00,
2013-03-04 04:45:00,35.7,25.1,29.62,NE,55,9.5,16.1,65,0.00,BKN,BKN,0.00,0.0,WeatherDisplay:10.37,2013-03-04 11:45:00,
2013-03-04 04:50:00,34.4,24.9,29.64,NE,34,7.2,10.3,68,0.00,BKN,BKN,0.00,0.0,WeatherDisplay:10.37,2013-03-04 11:50:00,
2013-03-04 04:55:00,33.5,24.8,29.65,NE,42,9.1,13.8,70,0.00,BKN,BKN,0.00,0.0,WeatherDisplay:10.37,2013-03-04 11:55:00,
2013-03-04 05:00:00,32.9,24.5,29.66,ENE,67,3.8,11.5,71,0.00,BKN,BKN,0.00,0.0,WeatherDisplay:10.37,2013-03-04 12:00:00,
2013-03-04 05:05:00,32.4,24.7,29.69,NNE,26,3.8,9.0,73,0.00,BKN,BKN,0.00,0.0,WeatherDisplay:10.37,2013-03-04 12:05:00,
2013-03-04 05:10:00,32.0,24.6,29.70,NE,40,7.8,11.5,74,0.00,BKN,BKN,0.00,0.0,WeatherDisplay:10.37,2013-03-04 12:10:00,
2013-03-04 05:15:00,31.7,24.7,29.71,NE,47,5.2,9.0,75,0.00,BKN,BKN,0.00,0.0,WeatherDisplay:10.37,2013-03-04 12:15:00,
2013-03-04 05:20:00,31.5,24.8,29.72,North,350,4.3,4.6,76,0.00,BKN,BKN,0.00,0.0,WeatherDisplay:10.37,2013-03-04 12:20:00,
2013-03-04 05:25:00,31.4,25.0,29.73,North,360,2.3,3.4,77,0.00,BKN,BKN,0.00,0.0,WeatherDisplay:10.37,2013-03-04 12:25:00,
2013-03-04 05:30:00,31.1,25.0,29.72,NNE,29,6.8,12.6,78,0.00,BKN,BKN,0.00,0.0,WeatherDisplay:10.37,2013-03-04 12:30:00,
2013-03-04 05:35:00,30.8,24.7,29.73,NE,42,4.5,6.9,78,0.00,BKN,BKN,0.00,0.0,WeatherDisplay:10.37,2013-03-04 12:35:00,
2013-03-04 05:40:00,30.6,24.9,29.73,NE,49,4.2,5.8,79,0.00,BKN,BKN,0.00,0.0,WeatherDisplay:10.37,2013-03-04 12:40:00,
2013-03-04 05:45:00,30.5,24.8,29.73,NNE,13,2.2,4.6,79,0.00,BKN,BKN,0.00,0.0,WeatherDisplay:10.37,2013-03-04 12:45:00,
2013-03-04 05:50:00,30.2,24.5,29.75,NNE,26,4.6,7.0,79,0.00,BKN,BKN,0.00,0.0,WeatherDisplay:10.37,2013-03-04 12:50:00,
2013-03-04 05:55:00,29.8,24.1,29.75,NNE,21,2.0,4.6,79,0.00,BKN,BKN,0.00,0.0,WeatherDisplay:10.37,2013-03-04 12:55:00,
2013-03-04 06:00:00,29.7,24.0,29.75,NNE,33,3.7,6.0,79,0.00,BKN,BKN,0.00,0.0,WeatherDisplay:10.37,2013-03-04 13:00:00,
2013-03-04 06:05:00,29.5,23.8,29.76,NE,38,0.1,2.3,79,0.00,BKN,BKN,0.00,0.0,WeatherDisplay:10.37,2013-03-04 13:05:00,
2013-03-04 06:10:00,29.4,23.7,29.78,NNE,31,1.2,3.4,79,0.00,BKN,BKN,0.00,0.0,WeatherDisplay:10.37,2013-03-04 13:10:00,
2013-03-04 06:15:00,29.3,23.9,29.78,NNE,30,0.0,1.1,80,0.00,BKN,BKN,0.00,0.0,WeatherDisplay:10.37,2013-03-04 13:15:00,
2013-03-04 06:20:00,29.2,23.8,29.79,NNE,29,0.7,2.3,80,0.00,BKN,BKN,0.00,0.0,WeatherDisplay:10.37,2013-03-04 13:20:00,
2013-03-04 06:25:00,29.2,23.8,29.79,NNE,29,1.0,3.4,80,0.00,BKN,BKN,0.00,0.0,WeatherDisplay:10.37,2013-03-04 13:25:00,
2013-03-04 06:30:00,29.1,23.7,29.79,NNE,29,0.0,2.3,80,0.00,BKN,BKN,0.00,0.0,WeatherDisplay:10.37,2013-03-04 13:30:00,
2013-03-04 06:35:00,29.0,23.6,29.79,NNE,29,1.7,3.4,80,0.00,BKN,BKN,0.00,0.0,WeatherDisplay:10.37,2013-03-04 13:35:00,
2013-03-04 06:40:00,29.0,23.6,29.79,NNE,29,1.4,3.4,80,0.00,BKN,BKN,0.00,0.0,WeatherDisplay:10.37,2013-03-04 13:40:00,
2013-03-04 06:45:00,28.9,23.5,29.80,NNE,29,0.0,0.0,80,0.00,BKN,BKN,0.00,7.0,WeatherDisplay:10.37,2013-03-04 13:45:00,
2013-03-04 06:50:00,28.9,23.8,29.79,NNE,29,0.2,2.3,81,0.00,BKN,BKN,0.00,19.0,WeatherDisplay:10.37,2013-03-04 13:50:00,
2013-03-04 06:55:00,28.8,23.7,29.80,NNE,29,0.0,0.0,81,0.00,BKN,BKN,0.00,25.0,WeatherDisplay:10.37,2013-03-04 13:55:00,
2013-03-04 07:00:00,28.8,23.4,29.80,NNE,29,0.0,0.0,80,0.00,BKN,BKN,0.00,28.0,WeatherDisplay:10.37,2013-03-04 14:00:00,
2013-03-04 07:05:00,28.8,23.7,29.81,NNE,29,0.0,0.0,81,0.00,BKN,BKN,0.00,33.0,WeatherDisplay:10.37,2013-03-04 14:05:00,
2013-03-04 07:10:00,28.8,23.7,29.82,NNE,29,0.0,0.0,81,0.00,BKN,BKN,0.00,51.0,WeatherDisplay:10.37,2013-03-04 14:10:00,
2013-03-04 07:15:00,28.8,23.7,29.82,NNE,29,0.4,2.3,81,0.00,BKN,BKN,0.00,44.0,WeatherDisplay:10.37,2013-03-04 14:15:00,
2013-03-04 07:20:00,28.8,23.7,29.82,NNE,29,0.0,0.0,81,0.00,BKN,BKN,0.00,49.0,WeatherDisplay:10.37,2013-03-04 14:20:00,
2013-03-04 07:25:00,28.8,23.7,29.82,NNE,29,1.1,2.3,81,0.00,-SN,-SN,0.00,51.0,WeatherDisplay:10.37,2013-03-04 14:25:00,
2013-03-04 07:30:00,28.8,23.7,29.81,NNE,29,0.0,1.1,81,0.00,-SN,-SN,0.00,42.0,WeatherDisplay:10.37,2013-03-04 14:30:00,
2013-03-04 07:35:00,28.8,24.0,29.82,NNE,29,0.0,0.0,82,0.00,-SN,-SN,0.00,39.0,WeatherDisplay:10.37,2013-03-04 14:35:00,
2013-03-04 07:40:00,28.8,24.0,29.81,NNE,29,0.7,2.3,82,0.00,-SN,-SN,0.00,40.0,WeatherDisplay:10.37,2013-03-04 14:40:00,
2013-03-04 07:45:00,28.9,24.1,29.81,NNE,30,0.0,0.0,82,0.00,-SN,-SN,0.00,51.0,WeatherDisplay:10.37,2013-03-04 14:45:00,
2013-03-04 07:50:00,29.0,24.2,29.81,NNE,29,0.2,2.3,82,0.00,-SN,-SN,0.00,60.0,WeatherDisplay:10.37,2013-03-04 14:50:00,
2013-03-04 07:55:00,29.1,24.3,29.81,NNE,30,0.0,0.0,82,0.00,-SN,-SN,0.00,46.0,WeatherDisplay:10.37,2013-03-04 14:55:00,
2013-03-04 08:00:00,29.1,24.3,29.81,NNE,31,1.6,2.3,82,0.00,-SN,-SN,0.00,47.0,WeatherDisplay:10.37,2013-03-04 15:00:00,
2013-03-04 08:05:00,29.0,24.2,29.80,East,82,2.3,3.4,82,0.00,BKN,BKN,0.00,60.0,WeatherDisplay:10.37,2013-03-04 15:05:00,
2013-03-04 08:10:00,29.0,24.2,29.80,East,82,0.0,0.0,82,0.00,BKN,BKN,0.00,62.0,WeatherDisplay:10.37,2013-03-04 15:10:00,
2013-03-04 08:15:00,28.9,24.1,29.80,East,82,0.8,2.3,82,0.00,BKN,BKN,0.00,56.0,WeatherDisplay:10.37,2013-03-04 15:15:00,
2013-03-04 08:20:00,28.8,24.0,29.80,East,82,0.0,0.0,82,0.00,BKN,BKN,0.00,53.0,WeatherDisplay:10.37,2013-03-04 15:20:00,
2013-03-04 08:25:00,28.9,24.1,29.81,East,82,0.0,0.0,82,0.00,BKN,BKN,0.00,67.0,WeatherDisplay:10.37,2013-03-04 15:25:00,
2013-03-04 08:30:00,28.9,24.4,29.80,East,82,0.4,1.1,83,0.00,BKN,BKN,0.00,69.0,WeatherDisplay:10.37,2013-03-04 15:30:00,
2013-03-04 08:35:00,28.9,24.4,29.80,East,82,0.3,1.1,83,0.00,BKN,BKN,0.00,67.0,WeatherDisplay:10.37,2013-03-04 15:35:00,
2013-03-04 08:40:00,28.9,24.4,29.79,East,82,0.1,1.1,83,0.00,BKN,BKN,0.00,72.0,WeatherDisplay:10.37,2013-03-04 15:40:00,
2013-03-04 08:45:00,29.0,24.5,29.80,East,82,0.9,2.3,83,0.00,-SN,-SN,0.00,74.0,WeatherDisplay:10.37,2013-03-04 15:45:00,
2013-03-04 08:50:00,29.0,24.8,29.80,ENE,64,1.4,2.0,84,0.00,-SN,-SN,0.00,88.0,WeatherDisplay:10.37,2013-03-04 15:50:00,
2013-03-04 08:55:00,29.0,24.8,29.80,ENE,64,1.0,3.4,84,0.00,-SN,-SN,0.00,77.0,WeatherDisplay:10.37,2013-03-04 15:55:00,
2013-03-04 09:00:00,29.0,24.8,29.80,East,88,0.5,2.3,84,0.00,-SN,-SN,0.00,105.0,WeatherDisplay:10.37,2013-03-04 16:00:00,
2013-03-04 09:05:00,29.0,24.8,29.81,East,87,0.6,3.0,84,0.00,-SN,-SN,0.00,127.0,WeatherDisplay:10.37,2013-03-04 16:05:00,
2013-03-04 09:10:00,29.2,25.0,29.81,ENE,75,2.7,3.4,84,0.00,-SN,-SN,0.00,142.0,WeatherDisplay:10.37,2013-03-04 16:10:00,
2013-03-04 09:15:00,29.2,25.0,29.80,East,92,1.8,3.4,84,0.00,-SN,-SN,0.00,93.0,WeatherDisplay:10.37,2013-03-04 16:15:00,
2013-03-04 09:20:00,29.1,24.9,29.80,East,83,2.1,3.4,84,0.00,-SN,-SN,0.00,121.0,WeatherDisplay:10.37,2013-03-04 16:20:00,
2013-03-04 09:25:00,29.2,25.0,29.80,East,83,0.0,1.1,84,0.00,-SN,-SN,0.00,155.0,WeatherDisplay:10.37,2013-03-04 16:25:00,
2013-03-04 09:30:00,29.2,25.0,29.80,ESE,109,2.2,3.4,84,0.00,-SN,-SN,0.00,120.0,WeatherDisplay:10.37,2013-03-04 16:30:00,
2013-03-04 09:35:00,29.4,25.2,29.80,East,94,2.2,4.6,84,0.00,-SN,-SN,0.00,90.0,WeatherDisplay:10.37,2013-03-04 16:35:00,
2013-03-04 09:40:00,29.4,25.2,29.79,ESE,109,3.2,3.4,84,0.00,-SN,-SN,0.00,102.0,WeatherDisplay:10.37,2013-03-04 16:40:00,
2013-03-04 09:45:00,29.4,25.4,29.80,ESE,102,3.8,5.8,85,0.00,-SN,-SN,0.00,97.0,WeatherDisplay:10.37,2013-03-04 16:45:00,
2013-03-04 09:50:00,29.2,25.0,29.80,East,92,0.0,2.3,84,0.00,-SN,-SN,0.00,105.0,WeatherDisplay:10.37,2013-03-04 16:50:00,
2013-03-04 09:55:00,29.3,25.1,29.80,ESE,104,1.8,4.0,84,0.00,-SN,-SN,0.00,137.0,WeatherDisplay:10.37,2013-03-04 16:55:00,
2013-03-04 10:00:00,29.1,24.9,29.80,ESE,110,2.4,4.6,84,0.00,-SN,-SN,0.00,172.0,WeatherDisplay:10.37,2013-03-04 17:00:00,
2013-03-04 10:05:00,29.0,24.5,29.81,SE,144,3.1,5.0,83,0.00,BKN,BKN,0.00,216.0,WeatherDisplay:10.37,2013-03-04 17:05:00,
2013-03-04 10:10:00,29.2,24.4,29.81,SE,139,0.5,2.3,82,0.00,BKN,BKN,0.00,243.0,WeatherDisplay:10.37,2013-03-04 17:10:00,
2013-03-04 10:15:00,30.0,25.2,29.80,East,96,4.4,8.1,82,0.00,BKN,BKN,0.00,248.0,WeatherDisplay:10.37,2013-03-04 17:15:00,
2013-03-04 10:20:00,30.0,24.3,29.81,ESE,103,4.1,8.1,79,0.00,BKN,BKN,0.00,206.0,WeatherDisplay:10.37,2013-03-04 17:20:00,
2013-03-04 10:25:00,29.9,23.6,29.81,ESE,121,6.1,13.8,77,0.00,BKN,BKN,0.00,141.0,WeatherDisplay:10.37,2013-03-04 17:25:00,
2013-03-04 10:30:00,30.1,22.8,29.81,ESE,105,3.0,10.3,74,0.00,BKN,BKN,0.00,127.0,WeatherDisplay:10.37,2013-03-04 17:30:00,
2013-03-04 10:35:00,30.1,22.5,29.80,SE,133,3.7,6.9,73,0.00,BKN,BKN,0.00,190.0,WeatherDisplay:10.37,2013-03-04 17:35:00,
2013-03-04 10:40:00,30.3,22.4,29.80,East,92,7.7,11.5,72,0.00,BKN,BKN,0.00,165.0,WeatherDisplay:10.37,2013-03-04 17:40:00,
2013-03-04 10:45:00,30.5,22.2,29.81,East,92,3.6,4.6,71,0.00,BKN,BKN,0.00,163.0,WeatherDisplay:10.37,2013-03-04 17:45:00,
2013-03-04 10:50:00,30.6,22.0,29.81,ENE,71,4.0,9.0,70,0.00,BKN,BKN,0.00,151.0,WeatherDisplay:10.37,2013-03-04 17:50:00,
2013-03-04 10:55:00,30.8,21.5,29.81,ESE,108,5.5,6.9,68,0.00,BKN,BKN,0.00,192.0,WeatherDisplay:10.37,2013-03-04 17:55:00,
2013-03-04 11:00:00,30.9,20.9,29.80,East,94,5.0,10.3,66,0.00,BKN,BKN,0.00,230.0,WeatherDisplay:10.37,2013-03-04 18:00:00,
2013-03-04 11:05:00,31.0,20.6,29.82,SE,126,3.1,8.1,65,0.00,BKN,BKN,0.00,190.0,WeatherDisplay:10.37,2013-03-04 18:05:00,
2013-03-04 11:10:00,31.1,20.7,29.81,SE,129,6.9,10.3,65,0.00,BKN,BKN,0.00,287.0,WeatherDisplay:10.37,2013-03-04 18:10:00,
2013-03-04 11:15:00,31.5,21.1,29.81,SE,126,5.7,9.2,65,0.00,BKN,BKN,0.00,316.0,WeatherDisplay:10.37,2013-03-04 18:15:00,
2013-03-04 11:20:00,31.8,21.0,29.81,ESE,103,2.9,4.6,64,0.00,BKN,BKN,0.00,295.0,WeatherDisplay:10.37,2013-03-04 18:20:00,
2013-03-04 11:25:00,32.1,20.9,29.81,ESE,110,4.3,6.9,63,0.00,BKN,BKN,0.00,283.0,WeatherDisplay:10.37,2013-03-04 18:25:00,
2013-03-04 11:29:00,32.1,20.9,29.80,East,101,6.0,10.3,63,0.00,BKN,BKN,0.00,315.0,WeatherDisplay:10.37,2013-03-04 18:29:00,
2013-03-04 11:30:00,32.1,20.9,29.80,ESE,119,7.3,10.3,63,0.00,BKN,BKN,0.00,318.0,WeatherDisplay:10.37,2013-03-04 18:30:00,
2013-03-04 11:35:00,32.2,21.0,29.81,East,90,4.1,6.9,63,0.00,BKN,BKN,0.00,350.0,WeatherDisplay:10.37,2013-03-04 18:35:00,
2013-03-04 11:40:00,32.6,21.4,29.80,ESE,123,4.9,10.3,63,0.00,BKN,BKN,0.00,281.0,WeatherDisplay:10.37,2013-03-04 18:40:00,
2013-03-04 11:45:00,32.7,21.1,29.80,ENE,76,0.8,4.0,62,0.00,BKN,BKN,0.00,257.0,WeatherDisplay:10.37,2013-03-04 18:45:00,
2013-03-04 11:50:00,32.9,21.3,29.81,ESE,104,7.4,12.6,62,0.00,BKN,BKN,0.00,218.0,WeatherDisplay:10.37,2013-03-04 18:50:00,
2013-03-04 11:55:00,32.7,21.5,29.80,ENE,75,6.3,11.5,63,0.00,BKN,BKN,0.00,225.0,WeatherDisplay:10.37,2013-03-04 18:55:00,
2013-03-04 12:00:00,32.7,21.5,29.81,ENE,74,4.4,10.3,63,0.00,BKN,BKN,0.00,176.0,WeatherDisplay:10.37,2013-03-04 19:00:00,
2013-03-04 12:05:00,32.7,21.1,29.84,ENE,65,7.0,11.5,62,0.00,OVC,OVC,0.00,162.0,WeatherDisplay:10.37,2013-03-04 19:05:00,
2013-03-04 12:10:00,32.6,20.6,29.84,ENE,71,2.7,7.0,61,0.00,OVC,OVC,0.00,183.0,WeatherDisplay:10.37,2013-03-04 19:10:00,
2013-03-04 12:15:00,32.5,20.5,29.85,ENE,77,4.1,8.1,61,0.00,OVC,OVC,0.00,162.0,WeatherDisplay:10.37,2013-03-04 19:15:00,
2013-03-04 12:20:00,32.5,20.5,29.85,ENE,69,4.2,6.9,61,0.00,OVC,OVC,0.00,146.0,WeatherDisplay:10.37,2013-03-04 19:20:00,
2013-03-04 12:25:00,32.4,20.8,29.85,NE,55,3.6,5.8,62,0.00,OVC,OVC,0.00,146.0,WeatherDisplay:10.37,2013-03-04 19:25:00,
2013-03-04 12:30:00,32.4,20.8,29.86,North,360,9.5,16.1,62,0.00,OVC,OVC,0.00,88.0,WeatherDisplay:10.37,2013-03-04 19:30:00,
2013-03-04 12:35:00,31.9,20.7,29.87,NE,44,6.5,12.6,63,0.00,OVC,OVC,0.00,97.0,WeatherDisplay:10.37,2013-03-04 19:35:00,
2013-03-04 12:40:00,31.3,20.5,29.88,NE,36,8.3,11.5,64,0.00,OVC,OVC,0.00,77.0,WeatherDisplay:10.37,2013-03-04 19:40:00,
2013-03-04 12:45:00,30.8,20.4,29.89,NNW,347,5.9,11.5,65,0.00,OVC,OVC,0.00,72.0,WeatherDisplay:10.37,2013-03-04 19:45:00,
2013-03-04 12:50:00,30.5,20.5,29.90,NNE,17,9.4,11.5,66,0.00,OVC,OVC,0.00,54.0,WeatherDisplay:10.37,2013-03-04 19:50:00,
2013-03-04 12:55:00,30.1,20.5,29.90,North,360,9.5,12.6,67,0.00,OVC,OVC,0.00,54.0,WeatherDisplay:10.37,2013-03-04 19:55:00,
2013-03-04 13:00:00,29.7,20.8,29.91,NE,51,6.4,13.8,69,0.00,OVC,OVC,0.00,56.0,WeatherDisplay:10.37,2013-03-04 20:00:00,
2013-03-04 13:05:00,29.5,20.9,29.92,East,92,6.5,12.6,70,0.00,-SN,-SN,0.00,69.0,WeatherDisplay:10.37,2013-03-04 20:05:00,
2013-03-04 13:10:00,29.3,21.1,29.93,NNE,32,8.1,14.9,71,0.00,-SN,-SN,0.00,88.0,WeatherDisplay:10.37,2013-03-04 20:10:00,
2013-03-04 13:15:00,29.1,21.2,29.93,NE,52,2.9,4.6,72,0.00,-SN,-SN,0.00,107.0,WeatherDisplay:10.37,2013-03-04 20:15:00,
2013-03-04 13:20:00,29.1,21.5,29.94,North,360,3.4,8.1,73,0.00,-SN,-SN,0.00,84.0,WeatherDisplay:10.37,2013-03-04 20:20:00,
2013-03-04 13:25:00,29.0,21.7,29.94,East,90,4.6,8.1,74,0.00,-SN,-SN,0.00,167.0,WeatherDisplay:10.37,2013-03-04 20:25:00,
2013-03-04 13:30:00,28.8,22.5,29.93,NNE,32,7.5,11.5,77,0.00,-SN,-SN,0.00,234.0,WeatherDisplay:10.37,2013-03-04 20:30:00,
2013-03-04 13:35:00,28.5,22.8,29.94,NNE,33,8.3,11.5,79,0.00, +SN, +SN,0.00,186.0,WeatherDisplay:10.37,2013-03-04 20:35:00,
2013-03-04 13:40:00,28.2,22.8,29.96,NE,36,3.8,10.3,80,0.00, +SN, +SN,0.00,132.0,WeatherDisplay:10.37,2013-03-04 20:40:00,
2013-03-04 13:45:00,27.8,23.0,29.96,NNE,32,4.1,5.8,82,0.00, +SN, +SN,0.00,163.0,WeatherDisplay:10.37,2013-03-04 20:45:00,
2013-03-04 13:50:00,27.6,23.1,29.95,ENE,76,6.3,9.2,83,0.00, +SN, +SN,0.00,207.0,WeatherDisplay:10.37,2013-03-04 20:50:00,
2013-03-04 13:55:00,27.6,23.4,29.96,NNE,24,3.2,3.4,84,0.00, +SN, +SN,0.00,123.0,WeatherDisplay:10.37,2013-03-04 20:55:00,
2013-03-04 14:00:00,27.7,23.5,29.96,NNE,29,5.7,9.0,84,0.00, +SN, +SN,0.00,158.0,WeatherDisplay:10.37,2013-03-04 21:00:00,
2013-03-04 14:05:00,27.4,23.5,29.98,NNE,17,7.0,12.6,85,0.00,CLR,CLR,0.00,151.0,WeatherDisplay:10.37,2013-03-04 21:05:00,
2013-03-04 14:10:00,27.0,23.1,29.99,NNE,26,5.7,9.2,85,0.00,CLR,CLR,0.00,132.0,WeatherDisplay:10.37,2013-03-04 21:10:00,
2013-03-04 14:15:00,26.8,23.2,30.01,NE,38,3.3,5.0,86,0.00,FEW,FEW,0.00,93.0,WeatherDisplay:10.37,2013-03-04 21:15:00,
2013-03-04 14:20:00,26.6,23.0,30.00,NE,40,5.2,9.2,86,0.00,CLR,CLR,0.00,113.0,WeatherDisplay:10.37,2013-03-04 21:20:00,
2013-03-04 14:25:00,26.4,22.8,30.02,ENE,63,2.3,3.4,86,0.00, +SN, +SN,0.00,91.0,WeatherDisplay:10.37,2013-03-04 21:25:00,
2013-03-04 14:30:00,26.3,23.0,30.02,NE,41,4.7,6.9,87,0.00, +SN, +SN,0.00,91.0,WeatherDisplay:10.37,2013-03-04 21:30:00,
2013-03-04 14:35:00,26.2,22.9,30.02,East,95,6.2,11.5,87,0.00,OVC,OVC,0.00,67.0,WeatherDisplay:10.37,2013-03-04 21:35:00,
2013-03-04 14:40:00,26.1,22.8,30.03,NE,38,4.8,11.5,87,0.00,OVC,OVC,0.00,63.0,WeatherDisplay:10.37,2013-03-04 21:40:00,
2013-03-04 14:45:00,25.7,22.4,30.04,NNE,25,7.0,17.3,87,0.00,OVC,OVC,0.00,79.0,WeatherDisplay:10.37,2013-03-04 21:45:00,
2013-03-04 14:50:00,25.1,21.8,30.06,NNE,13,5.2,9.2,87,0.00,OVC,OVC,0.00,95.0,WeatherDisplay:10.37,2013-03-04 21:50:00,
2013-03-04 14:55:00,24.7,21.4,30.05,North,360,6.4,11.5,87,0.00,-SN,-SN,0.00,91.0,WeatherDisplay:10.37,2013-03-04 21:55:00,
2013-03-04 15:00:00,24.5,21.5,30.05,East,81,4.0,5.8,88,0.00,-SN,-SN,0.00,155.0,WeatherDisplay:10.37,2013-03-04 22:00:00,
2013-03-04 15:05:00,24.5,21.5,30.06,NNE,24,2.3,5.8,88,0.00,-SN,-SN,0.00,195.0,WeatherDisplay:10.37,2013-03-04 22:05:00,
2013-03-04 15:10:00,24.6,21.6,30.06,North,9,3.8,5.8,88,0.00,-SN,-SN,0.00,163.0,WeatherDisplay:10.37,2013-03-04 22:10:00,
2013-03-04 15:15:00,24.7,21.9,30.06,NE,39,4.5,11.5,89,0.00,-SN,-SN,0.00,207.0,WeatherDisplay:10.37,2013-03-04 22:15:00,
2013-03-04 15:20:00,24.7,21.9,30.06,NE,44,5.2,9.2,89,0.00,-SN,-SN,0.00,334.0,WeatherDisplay:10.37,2013-03-04 22:20:00,
2013-03-04 15:25:00,24.8,22.0,30.07,NNE,13,3.7,5.0,89,0.00,-SN,-SN,0.00,151.0,WeatherDisplay:10.37,2013-03-04 22:25:00,
2013-03-04 15:30:00,24.7,21.9,30.07,NE,34,4.5,6.9,89,0.00,-SN,-SN,0.00,292.0,WeatherDisplay:10.37,2013-03-04 22:30:00,
2013-03-04 15:35:00,25.0,22.2,30.07,ENE,71,4.5,7.0,89,0.00,-SN,-SN,0.00,508.0,WeatherDisplay:10.37,2013-03-04 22:35:00,
2013-03-04 15:40:00,25.3,22.5,30.08,ENE,76,4.8,7.0,89,0.00,-SN,-SN,0.00,446.0,WeatherDisplay:10.37,2013-03-04 22:40:00,
2013-03-04 15:45:00,25.7,22.9,30.07,NNE,19,3.3,6.9,89,0.00,-SN,-SN,0.00,385.0,WeatherDisplay:10.37,2013-03-04 22:45:00,
2013-03-04 15:50:00,25.8,23.0,30.07,NNE,19,2.8,3.4,89,0.00,-SN,-SN,0.00,403.0,WeatherDisplay:10.37,2013-03-04 22:50:00,
2013-03-04 15:55:00,25.9,23.1,30.08,NE,52,1.9,4.6,89,0.00,-SN,-SN,0.00,417.0,WeatherDisplay:10.37,2013-03-04 22:55:00,
2013-03-04 16:00:00,26.3,23.5,30.08,East,80,4.5,6.9,89,0.00,-SN,-SN,0.00,366.0,WeatherDisplay:10.37,2013-03-04 23:00:00,
2013-03-04 16:05:00,26.2,23.1,30.11,East,85,4.5,7.0,88,0.00,BKN,BKN,0.00,346.0,WeatherDisplay:10.37,2013-03-04 23:05:00,
2013-03-04 16:10:00,26.3,23.5,30.11,East,86,1.6,9.2,89,0.00,BKN,BKN,0.00,327.0,WeatherDisplay:10.37,2013-03-04 23:10:00,
2013-03-04 16:15:00,26.5,23.4,30.10,NE,42,7.1,10.3,88,0.00,BKN,BKN,0.00,311.0,WeatherDisplay:10.37,2013-03-04 23:15:00,
2013-03-04 16:20:00,26.6,23.5,30.10,NNE,29,4.2,9.2,88,0.01,RA,RA,0.01,302.0,WeatherDisplay:10.37,2013-03-04 23:20:00,
2013-03-04 16:25:00,26.6,23.5,30.11,ENE,64,2.0,3.4,88,0.01,RA,RA,0.01,292.0,WeatherDisplay:10.37,2013-03-04 23:25:00,
2013-03-04 16:30:00,26.6,23.5,30.11,East,81,1.3,3.4,88,0.01,BKN,BKN,0.01,272.0,WeatherDisplay:10.37,2013-03-04 23:30:00,
2013-03-04 16:35:00,26.8,23.7,30.12,East,86,2.0,3.4,88,0.01,BKN,BKN,0.01,262.0,WeatherDisplay:10.37,2013-03-04 23:35:00,
2013-03-04 16:40:00,26.9,23.8,30.13,East,84,1.7,3.4,88,0.01,BKN,BKN,0.01,67.0,WeatherDisplay:10.37,2013-03-04 23:40:00,
2013-03-04 16:45:00,26.6,23.3,30.13,NE,34,1.2,3.4,87,0.01,BKN,BKN,0.01,53.0,WeatherDisplay:10.37,2013-03-04 23:45:00,
2013-03-04 16:50:00,26.2,22.9,30.15,North,9,2.7,4.6,87,0.02,RA,RA,0.02,79.0,WeatherDisplay:10.37,2013-03-04 23:50:00,
2013-03-04 16:55:00,26.1,22.5,30.13,ENE,68,4.6,8.1,86,0.02,RA,RA,0.02,62.0,WeatherDisplay:10.37,2013-03-04 23:55:00,
2013-03-04 17:00:00,26.1,22.5,30.15,North,9,1.2,2.3,86,0.02,BKN,BKN,0.02,65.0,WeatherDisplay:10.37,2013-03-05 00:00:00,
2013-03-04 17:05:00,26.0,22.4,30.16,ENE,63,0.2,3.0,86,0.02,BKN,BKN,0.02,200.0,WeatherDisplay:10.37,2013-03-05 00:05:00,
2013-03-04 17:10:00,26.1,22.5,30.16,NE,48,3.6,6.0,86,0.02,BKN,BKN,0.02,151.0,WeatherDisplay:10.37,2013-03-05 00:10:00,
2013-03-04 17:15:00,26.1,22.2,30.17,NE,34,9.1,14.9,85,0.02,BKN,BKN,0.02,111.0,WeatherDisplay:10.37,2013-03-05 00:15:00,
2013-03-04 17:20:00,26.0,21.8,30.17,NNE,13,4.7,11.5,84,0.01,BKN,BKN,0.02,47.0,WeatherDisplay:10.37,2013-03-05 00:20:00,
2013-03-04 17:25:00,25.9,21.7,30.17,NNE,32,3.3,10.3,84,0.01,BKN,BKN,0.02,33.0,WeatherDisplay:10.37,2013-03-05 00:25:00,
2013-03-04 17:30:00,25.8,21.3,30.18,NE,38,2.4,3.4,83,0.01,BKN,BKN,0.02,21.0,WeatherDisplay:10.37,2013-03-05 00:30:00,
2013-03-04 17:35:00,25.7,21.3,30.17,NNE,25,3.6,9.2,83,0.01,BKN,BKN,0.02,18.0,WeatherDisplay:10.37,2013-03-05 00:35:00,
2013-03-04 17:40:00,25.6,21.2,30.17,NNE,25,1.4,5.0,83,0.01,BKN,BKN,0.02,14.0,WeatherDisplay:10.37,2013-03-05 00:40:00,
2013-03-04 17:45:00,25.6,21.2,30.18,NNE,26,1.0,2.3,83,0.01,BKN,BKN,0.02,11.0,WeatherDisplay:10.37,2013-03-05 00:45:00,
2013-03-04 17:50:00,25.5,21.1,30.19,NE,37,2.2,4.6,83,0.00,BKN,BKN,0.02,7.0,WeatherDisplay:10.37,2013-03-05 00:50:00,
2013-03-04 17:55:00,25.4,21.0,30.20,NNE,31,1.1,3.4,83,0.00,BKN,BKN,0.02,5.0,WeatherDisplay:10.37,2013-03-05 00:55:00,
2013-03-04 18:00:00,25.4,21.0,30.20,NNE,31,0.6,2.3,83,0.00,BKN,BKN,0.02,0.0,WeatherDisplay:10.37,2013-03-05 01:00:00,
2013-03-04 18:05:00,25.3,20.9,30.21,NNE,31,0.8,2.3,83,0.00,BKN,BKN,0.02,0.0,WeatherDisplay:10.37,2013-03-05 01:05:00,
2013-03-04 18:10:00,25.3,20.9,30.21,East,88,2.2,3.4,83,0.00,BKN,BKN,0.02,0.0,WeatherDisplay:10.37,2013-03-05 01:10:00,
2013-03-04 18:15:00,25.2,20.8,30.21,ENE,68,0.7,2.3,83,0.00,BKN,BKN,0.02,0.0,WeatherDisplay:10.37,2013-03-05 01:15:00,
2013-03-04 18:20:00,25.1,20.7,30.21,ENE,68,0.2,1.1,83,0.00,BKN,BKN,0.02,0.0,WeatherDisplay:10.37,2013-03-05 01:20:00,
2013-03-04 18:25:00,25.0,20.6,30.22,ENE,68,0.0,0.0,83,0.00,BKN,BKN,0.02,0.0,WeatherDisplay:10.37,2013-03-05 01:25:00,
2013-03-04 18:30:00,24.8,20.4,30.23,ENE,68,0.0,0.0,83,0.00,BKN,BKN,0.02,0.0,WeatherDisplay:10.37,2013-03-05 01:30:00,
2013-03-04 18:35:00,24.7,20.3,30.23,ENE,68,0.0,0.0,83,0.00,BKN,BKN,0.02,0.0,WeatherDisplay:10.37,2013-03-05 01:35:00,
2013-03-04 18:40:00,24.6,20.2,30.24,ENE,68,0.0,0.0,83,0.00,BKN,BKN,0.02,0.0,WeatherDisplay:10.37,2013-03-05 01:40:00,
2013-03-04 18:45:00,24.5,20.1,30.24,ENE,68,0.0,0.0,83,0.00,BKN,BKN,0.02,0.0,WeatherDisplay:10.37,2013-03-05 01:45:00,
2013-03-04 18:50:00,24.4,20.0,30.25,ENE,68,0.0,0.0,83,0.00,BKN,BKN,0.02,0.0,WeatherDisplay:10.37,2013-03-05 01:50:00,
2013-03-04 18:55:00,24.2,19.8,30.26,ENE,68,0.0,0.0,83,0.00,BKN,BKN,0.02,0.0,WeatherDisplay:10.37,2013-03-05 01:55:00,
2013-03-04 19:00:00,24.0,19.6,30.26,ENE,68,0.0,0.0,83,0.00,BKN,BKN,0.02,0.0,WeatherDisplay:10.37,2013-03-05 02:00:00,
2013-03-04 19:05:00,23.9,19.5,30.27,ENE,68,0.0,0.0,83,0.00,SCT,SCT,0.02,0.0,WeatherDisplay:10.37,2013-03-05 02:05:00,
2013-03-04 19:10:00,23.8,19.4,30.27,ENE,68,0.0,0.0,83,0.00,SCT,SCT,0.02,0.0,WeatherDisplay:10.37,2013-03-05 02:10:00,
2013-03-04 19:15:00,23.7,19.3,30.27,ENE,68,0.0,0.0,83,0.00,SCT,SCT,0.02,0.0,WeatherDisplay:10.37,2013-03-05 02:15:00,
2013-03-04 19:20:00,23.5,19.1,30.28,ENE,68,0.0,0.0,83,0.00,SCT,SCT,0.02,0.0,WeatherDisplay:10.37,2013-03-05 02:20:00,
2013-03-04 19:25:00,23.3,18.9,30.28,ENE,68,0.0,0.0,83,0.00,SCT,SCT,0.02,0.0,WeatherDisplay:10.37,2013-03-05 02:25:00,
2013-03-04 19:30:00,23.1,18.7,30.28,ENE,68,0.0,0.0,83,0.00,SCT,SCT,0.02,0.0,WeatherDisplay:10.37,2013-03-05 02:30:00,
2013-03-04 19:35:00,22.9,18.5,30.29,ENE,68,0.5,1.1,83,0.00,SCT,SCT,0.02,0.0,WeatherDisplay:10.37,2013-03-05 02:35:00,
2013-03-04 19:40:00,22.8,18.4,30.29,ENE,68,0.0,0.0,83,0.00,SCT,SCT,0.02,0.0,WeatherDisplay:10.37,2013-03-05 02:40:00,
2013-03-04 19:45:00,22.7,18.3,30.29,ENE,68,0.5,2.3,83,0.00,SCT,SCT,0.02,0.0,WeatherDisplay:10.37,2013-03-05 02:45:00,
2013-03-04 19:50:00,22.6,17.9,30.29,ENE,68,0.0,0.0,82,0.00,SCT,SCT,0.02,0.0,WeatherDisplay:10.37,2013-03-05 02:50:00,
2013-03-04 19:55:00,22.6,17.9,30.30,ENE,68,0.0,1.1,82,0.00,SCT,SCT,0.02,0.0,WeatherDisplay:10.37,2013-03-05 02:55:00,
2013-03-04 20:00:00,22.5,17.8,30.30,ENE,68,0.5,2.3,82,0.00,SCT,SCT,0.02,0.0,WeatherDisplay:10.37,2013-03-05 03:00:00,
2013-03-04 20:05:00,22.5,17.5,30.30,ENE,68,0.5,2.3,81,0.00,FEW,FEW,0.02,0.0,WeatherDisplay:10.37,2013-03-05 03:05:00,
2013-03-04 20:10:00,22.5,17.5,30.30,ENE,69,0.3,1.1,81,0.00,FEW,FEW,0.02,0.0,WeatherDisplay:10.37,2013-03-05 03:10:00,
2013-03-04 20:15:00,22.4,17.5,30.32,ENE,69,0.0,0.0,81,0.00,FEW,FEW,0.02,0.0,WeatherDisplay:10.37,2013-03-05 03:15:00,
2013-03-04 20:20:00,22.2,17.0,30.32,ENE,69,0.3,2.3,80,0.00,FEW,FEW,0.02,0.0,WeatherDisplay:10.37,2013-03-05 03:20:00,
2013-03-04 20:25:00,22.1,16.9,30.32,ENE,69,0.0,0.0,80,0.00,FEW,FEW,0.02,0.0,WeatherDisplay:10.37,2013-03-05 03:25:00,
2013-03-04 20:30:00,21.9,16.7,30.32,ENE,69,0.5,2.0,80,0.00,FEW,FEW,0.02,0.0,WeatherDisplay:10.37,2013-03-05 03:30:00,
2013-03-04 20:35:00,21.8,16.3,30.33,East,82,0.1,1.1,79,0.00,FEW,FEW,0.02,0.0,WeatherDisplay:10.37,2013-03-05 03:35:00,
2013-03-04 20:40:00,21.6,16.1,30.33,East,82,1.1,3.4,79,0.00,FEW,FEW,0.02,0.0,WeatherDisplay:10.37,2013-03-05 03:40:00,
2013-03-04 20:45:00,21.6,15.8,30.33,East,82,0.0,0.0,78,0.00,FEW,FEW,0.02,0.0,WeatherDisplay:10.37,2013-03-05 03:45:00,
2013-03-04 20:50:00,21.5,15.7,30.34,East,82,0.0,0.0,78,0.00,FEW,FEW,0.02,0.0,WeatherDisplay:10.37,2013-03-05 03:50:00,
2013-03-04 20:55:00,21.3,15.2,30.34,East,82,0.0,0.0,77,0.00,FEW,FEW,0.02,0.0,WeatherDisplay:10.37,2013-03-05 03:55:00,
2013-03-04 21:00:00,21.2,15.1,30.34,East,82,0.0,0.0,77,0.00,FEW,FEW,0.02,0.0,WeatherDisplay:10.37,2013-03-05 04:00:00,
2013-03-04 21:05:00,21.1,15.0,30.35,East,82,0.5,1.1,77,0.00,CLR,CLR,0.02,0.0,WeatherDisplay:10.37,2013-03-05 04:05:00,
2013-03-04 21:10:00,21.0,14.9,30.35,East,82,0.0,0.0,77,0.00,CLR,CLR,0.02,0.0,WeatherDisplay:10.37,2013-03-05 04:10:00,
2013-03-04 21:15:00,20.8,14.7,30.35,East,82,0.0,0.0,77,0.00,CLR,CLR,0.02,0.0,WeatherDisplay:10.37,2013-03-05 04:15:00,
2013-03-04 21:20:00,20.8,14.7,30.35,East,82,0.0,0.0,77,0.00,CLR,CLR,0.02,0.0,WeatherDisplay:10.37,2013-03-05 04:20:00,
2013-03-04 21:25:00,20.6,14.2,30.35,East,82,0.9,1.1,76,0.00,CLR,CLR,0.02,0.0,WeatherDisplay:10.37,2013-03-05 04:25:00,
2013-03-04 21:30:00,20.5,14.1,30.35,East,82,0.4,2.3,76,0.00,CLR,CLR,0.02,0.0,WeatherDisplay:10.37,2013-03-05 04:30:00,
2013-03-04 21:35:00,20.4,14.0,30.37,East,82,0.0,2.0,76,0.00,CLR,CLR,0.02,0.0,WeatherDisplay:10.37,2013-03-05 04:35:00,
2013-03-04 21:40:00,20.3,13.9,30.37,East,96,1.7,2.3,76,0.00,CLR,CLR,0.02,0.0,WeatherDisplay:10.37,2013-03-05 04:40:00,
2013-03-04 21:45:00,20.3,13.6,30.37,East,96,0.0,0.0,75,0.00,CLR,CLR,0.02,0.0,WeatherDisplay:10.37,2013-03-05 04:45:00,
2013-03-04 21:50:00,20.3,13.6,30.37,East,97,1.6,3.4,75,0.00,CLR,CLR,0.02,0.0,WeatherDisplay:10.37,2013-03-05 04:50:00,
2013-03-04 21:55:00,20.3,13.6,30.37,East,96,0.6,2.3,75,0.00,CLR,CLR,0.02,0.0,WeatherDisplay:10.37,2013-03-05 04:55:00,
2013-03-04 22:00:00,20.2,13.2,30.37,East,97,0.7,2.3,74,0.00,CLR,CLR,0.02,0.0,WeatherDisplay:10.37,2013-03-05 05:00:00,
2013-03-04 22:05:00,20.2,13.2,30.36,East,96,0.0,0.0,74,0.00,CLR,CLR,0.02,0.0,WeatherDisplay:10.37,2013-03-05 05:05:00,
2013-03-04 22:10:00,20.2,13.2,30.36,East,97,0.4,1.1,74,0.00,CLR,CLR,0.02,0.0,WeatherDisplay:10.37,2013-03-05 05:10:00,
2013-03-04 22:15:00,20.1,13.1,30.36,East,97,0.0,0.0,74,0.00,CLR,CLR,0.02,0.0,WeatherDisplay:10.37,2013-03-05 05:15:00,
2013-03-04 22:20:00,20.0,13.0,30.36,East,97,0.7,1.1,74,0.00,CLR,CLR,0.02,0.0,WeatherDisplay:10.37,2013-03-05 05:20:00,
2013-03-04 22:25:00,19.9,12.6,30.36,East,96,0.0,0.0,73,0.00,CLR,CLR,0.02,0.0,WeatherDisplay:10.37,2013-03-05 05:25:00,
2013-03-04 22:30:00,19.8,12.5,30.36,East,96,0.1,1.1,73,0.00,CLR,CLR,0.02,0.0,WeatherDisplay:10.37,2013-03-05 05:30:00,
2013-03-04 22:35:00,19.7,12.4,30.37,East,97,0.0,1.1,73,0.00,CLR,CLR,0.02,0.0,WeatherDisplay:10.37,2013-03-05 05:35:00,
2013-03-04 22:40:00,19.7,12.4,30.37,East,96,0.5,2.3,73,0.00,CLR,CLR,0.02,0.0,WeatherDisplay:10.37,2013-03-05 05:40:00,
2013-03-04 22:45:00,19.7,12.4,30.37,East,97,0.2,1.1,73,0.00,CLR,CLR,0.02,0.0,WeatherDisplay:10.37,2013-03-05 05:45:00,
2013-03-04 22:50:00,19.7,12.4,30.37,East,97,0.0,0.0,73,0.00,CLR,CLR,0.02,0.0,WeatherDisplay:10.37,2013-03-05 05:50:00,
2013-03-04 22:55:00,19.6,12.3,30.37,East,97,0.0,0.0,73,0.00,CLR,CLR,0.02,0.0,WeatherDisplay:10.37,2013-03-05 05:55:00,
2013-03-04 23:00:00,19.5,12.6,30.37,East,97,0.3,1.1,74,0.00,CLR,CLR,0.02,0.0,WeatherDisplay:10.37,2013-03-05 06:00:00,
2013-03-04 23:05:00,19.3,12.4,30.36,East,96,0.0,0.0,74,0.00,CLR,CLR,0.02,0.0,WeatherDisplay:10.37,2013-03-05 06:05:00,
2013-03-04 23:10:00,19.2,12.3,30.36,East,97,0.8,2.3,74,0.00,CLR,CLR,0.02,0.0,WeatherDisplay:10.37,2013-03-05 06:10:00,
2013-03-04 23:15:00,19.0,12.1,30.36,East,98,1.0,3.4,74,0.00,CLR,CLR,0.02,0.0,WeatherDisplay:10.37,2013-03-05 06:15:00,
2013-03-04 23:20:00,19.0,12.1,30.36,East,98,1.2,2.3,74,0.00,CLR,CLR,0.02,0.0,WeatherDisplay:10.37,2013-03-05 06:20:00,
2013-03-04 23:25:00,18.9,12.0,30.36,ESE,109,2.1,4.0,74,0.00,CLR,CLR,0.02,0.0,WeatherDisplay:10.37,2013-03-05 06:25:00,
2013-03-04 23:30:00,18.8,11.9,30.36,ESE,111,1.4,3.4,74,0.00,CLR,CLR,0.02,0.0,WeatherDisplay:10.37,2013-03-05 06:30:00,
2013-03-04 23:35:00,18.7,11.8,30.36,ESE,113,2.6,3.4,74,0.00,CLR,CLR,0.02,0.0,WeatherDisplay:10.37,2013-03-05 06:35:00,
2013-03-04 23:40:00,18.5,11.6,30.36,ESE,113,0.2,3.4,74,0.00,CLR,CLR,0.02,0.0,WeatherDisplay:10.37,2013-03-05 06:40:00,
2013-03-04 23:45:00,18.4,11.5,30.38,ESE,113,0.3,1.1,74,0.00,CLR,CLR,0.02,0.0,WeatherDisplay:10.37,2013-03-05 06:45:00,
2013-03-04 23:50:00,18.2,11.3,30.38,ESE,116,0.7,3.4,74,0.00,CLR,CLR,0.02,0.0,WeatherDisplay:10.37,2013-03-05 06:50:00,
2013-03-04 23:55:00,18.1,11.2,30.38,ESE,117,2.1,3.4,74,0.00,CLR,CLR,0.02,0.0,WeatherDisplay:10.37,2013-03-05 06:55:00,